Torna al catalogo

FENGYUN 1C DEB

AttivoSSO
NORAD 29958·DEBRIS·🇨🇳 China

Lanciato May 10, 1999 da Taiyuan Satellite Launch Center

Loading…

Prossimi Passaggi (prossime 24 ore)

TLE

AggiornatoSource: Space-Track

Epoca: Sep 14, 2026, 06:23 UTC

1 29958U 99025KG  26257.26663601  .00000271  00000-0  16077-3 0  9994
2 29958  98.6608 268.5049 0053396 264.3445  95.1638 14.14699377 13401

Traccia FENGYUN 1C DEB in tempo reale con AllMySat

Download on the App Store